Malmstrom AFB, MT

7:37 AM MDT on March 29, 2017 (GMT -0600)
Malmstrom AFB

Weather History for KGFA - February, 2013

Change the Weather History Date:

Saturday, February 23, 2013

  Actual Average (KGTF) Record (KGTF)
Temperature  
Mean Temperature 34 °F -  
Max Temperature 39 °F 39 °F 63 °F (1921)
Min Temperature 28 °F 20 °F -23 °F (1922)
Degree Days  
Heating Degree Days 32    
Moisture  
Dew Point 20 °F    
Average Humidity 58    
Maximum Humidity 82    
Minimum Humidity 28    
Precipitation  
Precipitation 0.00 in - - ()
Sea Level Pressure  
Sea Level Pressure 29.82 in    
Wind  
Wind Speed 17 mph (SW)    
Max Wind Speed 24 mph    
Max Gust Speed 34 mph    
Visibility 9 miles    
Events Snow    
Averages and records for this station are not official NWS values.
T = Trace of Precipitation, MM = Missing Value Source: NWS Daily Summary

Daily Weather History Graph

Daily Weather History Graph

Search for Another Location

Airport or City:

Trip Planner

Search our weather history database for the weather conditions in past years. The results will help you decide how hot, cold, wet, or windy it might be!

Date:

Astronomy

Feb. 23, 2013 Rise Set
Actual Time 7:15 AM MST 6:01 PM MST
Civil Twilight 6:44 AM MST 6:32 PM MST
Nautical Twilight 6:08 AM MST 7:07 PM MST
Astronomical Twilight 5:33 AM MST 7:43 PM MST
Moon 4:11 PM MST (2/23) 5:45 AM MST (2/23)
Length of Visible Light 11h 47m
Length of Day
10h 45m
Waxing Gibbous, 95% of the Moon is Illuminated
Feb 23
Waxing Gibbous
Feb 25
Full
Mar 4
Last Quarter
Mar 11
New
Mar 19
First Quarter

Hourly Weather History & Observations

Time (MST) Temp. Windchill Dew Point Humidity Pressure Visibility Wind Dir Wind Speed Gust Speed Precip Events Conditions
12:56 AM 39.9 °F 29.7 °F 21.9 °F 49% 29.58 in 10.0 mi SSW 23.0 mph 29.9 mph N/A   Scattered Clouds
1:56 AM 39.9 °F 29.7 °F 23.0 °F 51% 29.57 in 10.0 mi SSW 23.0 mph 34.5 mph N/A   Clear
2:56 AM 37.9 °F 28.2 °F 23.0 °F 55% 29.59 in 10.0 mi SSW 18.4 mph - N/A   Clear
3:56 AM 36.0 °F 26.0 °F 23.0 °F 59% 29.60 in 10.0 mi South 17.3 mph - N/A   Clear
4:56 AM 34.0 °F 24.6 °F 23.0 °F 64% 29.62 in 10.0 mi South 13.8 mph - N/A   Mostly Cloudy
5:56 AM 37.0 °F 29.3 °F 25.0 °F 62% 29.64 in 10.0 mi SSW 11.5 mph - N/A   Overcast
6:56 AM 34.0 °F 24.2 °F 23.0 °F 64% 29.67 in 10.0 mi SSW 15.0 mph - N/A   Mostly Cloudy
7:56 AM 35.1 °F 25.5 °F 19.9 °F 54% 29.67 in 10.0 mi SW 15.0 mph - N/A   Mostly Cloudy
8:56 AM 36.0 °F 25.6 °F 19.0 °F 50% 29.71 in 10.0 mi SSW 18.4 mph - N/A   Scattered Clouds
9:56 AM 37.9 °F 26.8 °F 15.1 °F 39% 29.73 in 10.0 mi SW 24.2 mph 31.1 mph N/A   Clear
10:56 AM 37.9 °F 27.6 °F 12.0 °F 35% 29.76 in 10.0 mi SW 20.7 mph 28.8 mph N/A   Clear
11:56 AM 37.0 °F 27.4 °F 15.1 °F 41% 29.79 in 10.0 mi SW 17.3 mph - N/A   Scattered Clouds
12:56 PM 39.0 °F 29.3 °F 8.1 °F 28% 29.79 in 10.0 mi WSW 19.6 mph 29.9 mph N/A   Partly Cloudy
1:56 PM 39.0 °F 29.0 °F 8.1 °F 28% 29.81 in 10.0 mi SW 20.7 mph 26.5 mph N/A   Clear
2:42 PM 39.2 °F 31.6 °F 10.4 °F 31% 29.69 in 10.0 mi WNW 12.7 mph 21.9 mph N/A   Mostly Cloudy
2:56 PM 39.0 °F 30.3 °F 8.1 °F 28% 29.83 in 10.0 mi West 16.1 mph 25.3 mph N/A   Mostly Cloudy
4:56 PM 34.0 °F 22.7 °F 19.0 °F 54% 29.97 in 10.0 mi WNW 19.6 mph 28.8 mph N/A   Overcast
5:07 PM 32.0 °F 23.0 °F 23.0 °F 69% 29.82 in 2.5 mi WNW 11.5 mph 27.6 mph 0.00 in Snow Light Snow
5:16 PM 30.2 °F 21.9 °F 24.8 °F 80% 29.82 in 1.5 mi West 9.2 mph 18.4 mph 0.00 in Snow Light Snow
5:23 PM 30.2 °F 23.4 °F 24.8 °F 80% 29.82 in 3.0 mi West 6.9 mph - 0.00 in Snow Light Snow
5:53 PM 32.0 °F 22.5 °F 24.8 °F 75% 29.83 in 9.0 mi WSW 12.7 mph - 0.00 in   Overcast
5:56 PM 32.0 °F 23.0 °F 23.0 °F 69% 29.99 in 9.0 mi WSW 11.5 mph - 0.00 in   Overcast
6:56 PM 30.0 °F 20.0 °F 25.0 °F 82% 30.04 in 10.0 mi SW 12.7 mph - 0.00 in   Overcast
7:56 PM 30.0 °F 21.1 °F 25.0 °F 82% 30.07 in 10.0 mi SW 10.4 mph - N/A   Overcast
8:56 PM 28.9 °F 18.6 °F 23.0 °F 78% 30.10 in 10.0 mi SW 12.7 mph 20.7 mph N/A   Overcast
9:56 PM 30.0 °F 21.1 °F 23.0 °F 75% 30.12 in 10.0 mi SW 10.4 mph - N/A   Overcast
10:56 PM 30.0 °F 21.1 °F 21.9 °F 72% 30.14 in 10.0 mi SW 10.4 mph - N/A   Overcast
11:56 PM 28.9 °F 19.8 °F 21.9 °F 75% 30.17 in 10.0 mi SSW 10.4 mph - N/A   Overcast